Location: Godiavel Galaoual
(15.2485°N, 12.6604°W)
Time: 02:09:28
(UTC+00:00)

Explorer 7 - Pass Details

Date: 21 June 2021
Orbit: 484 x 676 km, 50.3° (Epoch: 29 July)

Event Time Altitude Azimuth Distance (km) Brightness Sun altitude
Rises 18:51:34 0° 219° (SW) 2,911 10.7 6.2°
Reaches altitude 10° 18:53:50 10° 220° (SW) 2,029 10.0 5.7°
Maximum altitude 18:58:33 86° 308° (NW) 665 7.4 4.7°
Drops below altitude 10° 19:03:26 10° 38° (NE) 2,097 9.7 3.6°
Sets 19:05:48 0° 39° (NE) 3,016 10.4 3.1°
